Wind_Speed
20 20 20 20 20 19 20 20 20 20 21 21 22 21 21 21 20 21 21 22 21 21 22 23 23 23 22 23 22 22 22 22 22 22 21 21 21 22
21 21 21 21 20 20 20 21 20 20 21 21 22 22 22 22 21 22 22 23 23 23 24 24 24 24 24 24 24 24 24 24 24 24 24 23 23 23
21 21 21 22 22 21 22 21 21 21 21 21 22 23 23 23 23 23 24 24 25 25 25 25 26 25 25 26 26 27 26 25 25 25 25 25 26 26
23 22 22 22 22 22 22 22 21 21 22 21 22 23 24 24 24 25 24 25 25 25 25 26 26 26 26 26 27 27 27 27 27 26 26 26 27 27
24 23 22 22 23 23 23 23 22 22 22 22 22 24 24 25 25 26 26 25 25 25 25 26 26 26 26 27 26 27 27 28 28 28 27 27 27 27
24 23 23 23 23 23 23 23 23 23 24 24 24 24 24 25 25 26 27 27 26 26 26 26 26 27 27 28 28 28 28 28 29 29 28 27 27 28
25 24 24 24 24 24 24 24 25 24 25 25 25 25 24 25 26 26 26 27 27 28 27 26 27 27 27 28 29 29 29 29 29 29 30 30 29 29
25 25 24 24 25 26 25 26 26 25 25 25 25 25 24 25 25 26 26 27 27 28 28 26 26 26 26 27 29 29 30 30 30 30 31 31 31 30
26 26 25 25 25 26 26 26 27 27 26 26 25 25 25 25 26 26 27 27 26 26 27 26 25 25 26 26 26 28 29 30 30 30 30 30 30 31
27 26 26 25 25 25 25 26 27 26 26 26 26 25 25 26 26 27 27 27 26 26 27 27 26 26 25 25 26 26 26 27 29 30 29 28 29 30
27 27 27 26 26 26 27 27 26 26 26 26 26 26 26 26 26 26 26 27 27 26 26 27 27 26 26 25 25 25 26 26 27 28 29 29 29 31
26 27 26 26 26 26 27 26 26 26 26 27 28 28 27 26 26 27 27 27 27 26 27 28 27 27 26 26 26 26 26 26 26 27 28 29 29 30
26 26 26 26 27 26 26 26 26 26 27 27 27 28 27 27 26 27 27 27 27 26 26 27 27 27 26 25 25 26 26 26 26 26 27 27 27 28
26 26 26 27 27 27 27 27 27 27 27 27 27 27 27 26 26 26 25 25 25 25 25 26 26 27 27 26 25 24 25 25 26 26 26 25 26 26
28 28 28 28 28 27 27 27 27 27 27 27 27 26 26 26 26 26 26 25 25 25 25 25 25 26 26 26 25 25 24 24 24 25 25 25 26 27
29 29 29 28 28 27 27 27 27 26 27 27 27 26 26 26 26 26 26 26 25 24 25 25 25 25 25 25 25 24 24 23 23 23 24 25 25 25
30 30 30 29 28 27 27 27 27 27 26 26 26 26 26 25 25 25 25 25 25 25 25 24 24 24 24 24 24 24 24 23 23 23 23 24 24 24
31 31 30 29 28 27 27 27 27 27 27 26 25 26 26 25 25 26 25 25 25 24 24 23 23 23 23 23 24 24 24 23 23 23 23 23 23 23
31 30 30 29 28 28 28 27 27 27 26 26 25 25 26 26 26 26 26 25 25 24 24 23 23 23 24 23 23 23 23 23 23 23 23 22 22 21
31 30 30 29 28 28 28 28 28 27 27 26 25 25 25 25 25 25 25 25 25 24 24 24 24 24 23 23 23 23 23 23 22 22 22 21 20 20
31 31 30 30 29 29 29 29 28 28 27 26 26 26 26 25 25 25 25 24 24 24 23 23 24 24 23 22 22 22 22 21 21 21 21 20 20 20
31 30 29 29 28 28 28 28 28 28 27 27 26 26 26 25 25 25 24 24 23 23 23 23 23 23 22 21 21 21 21 21 22 22 21 20 20 20
29 28 28 27 27 27 27 26 26 26 27 26 26 25 24 25 25 25 24 23 23 23 22 22 22 22 22 21 21 21 21 22 22 21 20 19 20 20
Wind_Direction
301 300 299 298 299 297 295 294 290 286 284 283 283 281 281 282 280 278 279 279 280 278 277 276 276 274 273 271 269 269 269 271 270 269 270 268 265 264
298 297 296 294 294 294 294 294 291 289 286 285 285 285 285 283 281 281 280 280 280 279 279 277 276 274 272 271 270 270 270 270 267 268 269 268 267 265
301 298 295 293 293 293 295 294 294 292 290 286 285 285 285 284 284 283 282 281 280 278 277 276 276 275 273 273 272 271 269 269 267 267 267 268 266 266
303 300 295 293 293 292 294 294 294 294 293 289 287 286 285 284 284 285 284 282 281 279 277 277 276 275 274 273 273 272 271 269 267 266 267 267 266 266
302 299 295 294 294 292 292 293 294 294 293 291 290 288 287 286 285 285 285 283 282 280 278 278 277 276 275 274 275 273 272 269 268 266 267 266 267 268
303 299 294 294 295 294 294 293 293 292 291 292 291 289 288 288 287 286 283 281 281 281 278 277 277 278 276 274 274 273 273 273 272 268 268 267 267 267
300 299 298 296 294 294 295 295 294 292 292 292 291 289 289 289 287 285 282 281 280 280 278 277 277 277 278 278 276 275 275 274 273 271 270 268 267 267
299 299 299 298 297 295 296 297 297 295 294 293 291 290 290 289 289 288 284 282 282 280 279 278 279 279 279 279 277 275 274 274 274 271 270 269 268 267
299 299 298 298 298 296 296 296 298 296 295 294 293 293 291 290 288 287 286 284 283 282 280 280 280 281 282 283 280 276 274 274 275 273 271 268 268 267
299 299 299 297 297 296 296 296 295 294 295 294 294 294 292 291 290 289 287 284 283 283 283 281 280 281 282 283 282 280 277 275 275 274 271 270 269 270
299 300 299 298 297 296 296 297 297 296 295 296 296 296 294 292 290 288 286 285 284 283 281 281 281 280 281 281 281 281 279 278 276 275 271 269 271 271
297 298 298 297 297 298 297 296 295 295 294 295 296 296 296 293 291 288 285 283 282 281 281 280 280 281 280 279 278 278 279 279 278 277 275 272 272 271
297 298 298 299 300 299 298 296 293 293 294 295 295 295 295 294 292 290 287 285 283 282 281 281 281 281 281 280 279 278 279 279 278 277 276 275 272 270
297 298 299 300 300 299 297 296 295 294 295 295 295 294 293 292 292 292 289 287 285 282 281 281 281 281 280 280 281 281 280 280 279 276 276 274 272 272
296 296 297 298 298 298 298 296 295 295 296 295 294 294 293 292 293 291 290 288 286 283 281 281 280 280 281 281 281 281 280 280 280 278 276 276 274 272
294 295 294 295 295 295 295 296 295 295 294 294 295 294 293 292 293 292 290 289 287 284 282 281 280 281 282 282 282 282 282 281 279 279 276 277 276 274
293 294 294 294 294 294 294 295 296 295 294 294 293 294 294 293 293 293 291 289 288 287 283 280 280 280 282 283 282 282 281 280 278 278 278 278 277 276
291 292 293 294 294 294 294 294 296 296 294 293 293 292 292 292 293 294 292 290 289 289 288 285 284 284 284 284 282 281 280 280 280 280 281 281 280 277
289 291 291 291 292 292 292 292 294 295 293 293 293 292 292 291 291 291 290 288 286 286 285 285 285 284 284 285 284 282 281 281 281 282 283 284 281 276
289 289 289 288 288 289 290 291 292 292 292 291 293 293 292 291 291 291 290 288 286 285 285 284 284 284 283 284 284 282 281 282 281 281 281 282 281 278
289 288 287 286 285 286 287 288 288 290 291 290 291 292 291 292 291 291 290 289 287 286 285 284 284 283 282 282 283 281 281 282 281 279 279 279 280 279
289 288 286 284 283 284 286 287 287 288 290 289 289 289 290 291 291 290 290 290 289 287 285 284 283 282 280 281 283 284 281 281 281 279 277 276 277 278
289 287 285 283 282 283 284 286 287 288 289 289 288 288 289 290 291 291 290 290 289 287 286 285 284 283 281 280 281 283 282 282 280 277 275 274 274 276
Height
5852 5850 5848 5847 5845 5844 5843 5842 5841 5841 5840 5839 5838 5838 5838 5837 5836 5836 5837 5837 5837 5837 5837 5837 5837 5837 5837 5837 5838 5838 5838 5838 5839 5840 5840 5841 5842 5842
5847 5845 5844 5842 5841 5839 5838 5837 5835 5835 5834 5833 5832 5832 5831 5831 5830 5830 5830 5830 5830 5830 5830 5830 5830 5830 5830 5830 5831 5831 5831 5832 5832 5833 5834 5835 5835 5836
5841 5840 5838 5837 5836 5835 5833 5832 5830 5829 5828 5828 5826 5825 5825 5824 5824 5824 5823 5823 5823 5823 5823 5823 5823 5823 5823 5823 5823 5824 5824 5824 5825 5826 5826 5827 5828 5829
5836 5835 5833 5832 5831 5829 5828 5826 5825 5823 5822 5821 5820 5819 5819 5818 5817 5816 5816 5816 5816 5815 5816 5816 5815 5815 5816 5815 5816 5816 5816 5817 5817 5818 5819 5820 5820 5820
5831 5829 5828 5827 5825 5824 5822 5821 5819 5818 5816 5815 5814 5813 5812 5811 5810 5809 5809 5808 5808 5808 5808 5808 5808 5808 5808 5808 5808 5808 5808 5809 5809 5810 5810 5811 5812 5812
5825 5824 5822 5821 5819 5818 5816 5815 5813 5812 5810 5809 5807 5806 5805 5803 5802 5802 5801 5800 5800 5800 5800 5799 5799 5799 5799 5799 5799 5799 5800 5800 5800 5801 5802 5802 5803 5804
5820 5818 5817 5815 5813 5812 5810 5808 5807 5805 5804 5802 5800 5799 5797 5796 5795 5794 5794 5793 5792 5792 5792 5792 5791 5791 5791 5790 5790 5790 5790 5790 5791 5792 5793 5793 5794 5795
5814 5812 5811 5809 5807 5805 5804 5802 5800 5798 5797 5795 5793 5792 5790 5789 5787 5787 5786 5786 5785 5784 5783 5783 5783 5782 5782 5781 5781 5781 5781 5781 5781 5782 5782 5783 5784 5785
5808 5806 5804 5803 5801 5799 5797 5795 5793 5791 5790 5788 5786 5784 5783 5782 5780 5779 5778 5777 5777 5776 5775 5775 5774 5774 5773 5772 5771 5771 5771 5771 5771 5772 5772 5773 5774 5775
5802 5800 5798 5796 5794 5792 5791 5789 5786 5784 5782 5781 5779 5777 5776 5774 5772 5771 5770 5769 5768 5767 5766 5766 5766 5765 5764 5763 5762 5762 5761 5761 5761 5762 5762 5763 5764 5765
5795 5793 5791 5789 5787 5785 5783 5781 5779 5777 5775 5773 5772 5770 5767 5766 5764 5763 5762 5761 5760 5759 5758 5758 5757 5757 5756 5755 5754 5753 5752 5752 5752 5752 5752 5753 5754 5755
5788 5786 5784 5782 5780 5778 5776 5774 5772 5771 5768 5766 5764 5762 5760 5758 5756 5755 5753 5752 5751 5751 5750 5749 5748 5748 5748 5747 5746 5745 5744 5744 5743 5743 5743 5744 5744 5744
5780 5778 5777 5775 5773 5771 5769 5767 5765 5763 5761 5759 5756 5754 5752 5750 5749 5747 5745 5744 5743 5742 5742 5741 5740 5739 5739 5739 5738 5737 5736 5736 5735 5735 5735 5735 5735 5735
5772 5771 5769 5767 5765 5763 5761 5759 5757 5755 5753 5751 5749 5747 5745 5743 5741 5739 5737 5736 5734 5734 5733 5732 5732 5731 5730 5730 5729 5728 5728 5727 5727 5727 5726 5726 5726 5727
5764 5763 5761 5760 5758 5756 5754 5752 5750 5747 5745 5743 5741 5739 5737 5735 5733 5731 5729 5728 5727 5726 5725 5724 5724 5723 5722 5722 5721 5720 5720 5719 5718 5718 5718 5718 5718 5718
5757 5755 5753 5752 5750 5748 5746 5744 5742 5740 5737 5735 5733 5731 5729 5727 5726 5724 5722 5721 5719 5718 5717 5716 5715 5715 5714 5713 5713 5712 5712 5711 5711 5710 5710 5710 5709 5709
5748 5747 5745 5743 5741 5740 5738 5736 5734 5732 5730 5728 5726 5724 5722 5720 5718 5716 5715 5713 5712 5711 5709 5708 5707 5707 5706 5706 5705 5705 5704 5704 5703 5703 5703 5702 5702 5701
5739 5738 5736 5735 5733 5731 5730 5728 5726 5724 5722 5720 5718 5716 5714 5712 5711 5709 5707 5705 5704 5703 5702 5701 5700 5699 5699 5698 5698 5698 5697 5697 5696 5696 5696 5695 5695 5694
5730 5729 5727 5726 5724 5722 5721 5720 5718 5716 5714 5712 5710 5708 5707 5705 5703 5701 5700 5698 5697 5696 5695 5693 5693 5692 5692 5692 5691 5690 5690 5689 5689 5689 5688 5688 5688 5687
5721 5719 5718 5716 5715 5714 5712 5711 5709 5708 5706 5704 5702 5700 5699 5697 5695 5693 5692 5690 5689 5688 5687 5686 5685 5685 5685 5685 5684 5683 5682 5682 5682 5682 5682 5681 5681 5681
5711 5710 5708 5707 5706 5705 5704 5702 5701 5699 5698 5696 5694 5692 5691 5689 5687 5686 5684 5682 5681 5680 5679 5679 5678 5678 5677 5677 5677 5676 5676 5675 5675 5675 5675 5675 5675 5675
5702 5700 5699 5698 5697 5695 5694 5693 5692 5691 5689 5688 5686 5685 5683 5681 5679 5678 5677 5675 5673 5672 5672 5671 5671 5670 5670 5670 5670 5670 5669 5669 5668 5668 5668 5668 5668 5669
5692 5691 5690 5689 5688 5686 5685 5684 5683 5682 5681 5679 5678 5676 5675 5673 5672 5670 5669 5668 5666 5665 5664 5664 5663 5663 5663 5663 5663 5663 5663 5662 5662 5662 5662 5662 5662 5662